#timestamp,LO_Frequency,Hit,StdDev 
1508486415.2,286047001.9,P
1508486435.0,286047002.4,P
1508486435.9,286047002.4,P
1508486455.7,286047002.7,Y
1508486475.6,286046999.0,P
1508486495.4,286046996.9,N
1508486515.3,286046996.5,N
1508486535.1,286046999.3,N
1508486536.0,286046999.3,N
1508486555.8,286046998.5,N
1508486575.7,286047001.2,N
1508486595.5,286046999.1,N
1508486615.3,286046996.6,N
1508486635.2,286046996.8,N
1508486655.0,286046996.7,N
1508486655.9,286046996.7,N
1508486675.8,286046997.2,N
1508486695.6,286046995.3,N
1508486715.4,286046997.9,N
1508486735.3,286046999.2,N
1508486755.1,286046997.7,N
1508486775.9,286046997.4,N
1508486795.7,286046997.0,N
1508486815.5,286046998.5,N
1508486835.4,286046997.2,N
1508486855.2,286046999.5,N
1508486875.0,286046998.2,N
1508486876.0,286046998.2,N
1508486895.8,286047000.8,N
1508486915.6,286046998.6,N
1508486935.5,286046998.9,N
1508486955.3,286046996.9,N
1508486975.1,286046997.9,N
1508486995.9,286046995.3,Y
1508487015.7,286046998.8,P
1508487035.6,286046998.1,P
1508487055.4,286047000.2,N
1508487075.2,286047000.8,N
1508487095.1,286047000.6,N
1508487096.0,286047000.6,N
1508487115.8,286047000.9,N
1508487135.6,286047000.9,N
1508487155.5,286047000.0,N
1508487175.3,286047000.0,N
1508487195.2,286047000.7,N
1508487215.9,286047001.2,N
1508487235.7,286046996.6,Y
1508487255.6,286046996.9,P
1508487275.4,286046999.1,N
1508487295.2,286046999.3,N
1508487315.1,286047001.2,N
1508487316.0,286047001.2,N
1508487335.8,286046998.7,N
1508487355.7,286047000.9,N
1508487375.5,286047000.5,N
1508487395.3,286046998.2,N
1508487415.2,286046998.5,N
1508487435.0,286047000.6,N
1508487435.9,286047000.6,N
1508487455.7,286047000.4,N
1508487475.6,286046998.2,N
1508487495.4,286047000.8,N
1508487515.3,286047000.5,N
1508487535.1,286047000.6,N
1508487536.0,286047000.6,N
1508487555.8,286047000.2,N
1508487575.7,286047001.5,N
1508487595.5,286047002.3,N
1508487615.4,286047002.6,N
1508487635.2,286047002.7,N
1508487655.0,286047000.0,N
1508487655.9,286047000.0,N
1508487675.8,286047000.4,N
1508487695.6,286046999.8,N
1508487715.4,286046998.3,N
1508487735.3,286047000.1,N
1508487755.1,286047000.8,N
1508487775.9,286046999.9,N
1508487795.7,286047000.5,N
1508487815.5,286047000.3,N
1508487835.4,286047002.5,N
1508487855.2,286047001.9,N
1508487875.0,286047002.2,N
1508487875.9,286047002.2,N
1508487925.8,286047000.7,E
1508487935.7,286046999.9,N
1508487955.6,286046996.5,P
1508487975.4,286046996.9,N
1508487995.2,286046999.4,N
1508488015.1,286046998.2,N
1508488016.0,286046998.2,N
1508488035.8,286046998.4,N
1508488055.7,286046999.0,N
1508488075.5,286046997.9,N
1508488095.3,286046997.0,N
1508488115.2,286046999.6,N
1508488135.0,286046997.2,N
1508488135.9,286046997.2,N
1508488155.8,286046997.2,N
1508488175.6,286046997.9,N
1508488195.4,286046997.9,N
1508488215.3,286046995.4,Y
1508488235.1,286046999.0,P
1508488255.9,286046998.8,N
1508488275.7,286046998.8,N
1508488295.5,286046999.3,N
1508488315.4,286046998.5,Y
1508488335.2,286046998.1,P
1508488355.1,286046998.4,P
1508488356.0,286046998.4,P
1508488375.8,286047001.2,Y
1508488395.6,286047002.1,P
1508488415.5,286047002.2,N
1508488435.3,286047004.1,N
1508488455.2,286047003.5,N
1508488475.9,286047003.3,N
1508488495.7,286047006.0,Y
1508488515.6,286047002.3,P
1508488535.4,286047002.6,P
1508488555.3,286047002.7,P
1508488575.1,286047000.1,N
1508488576.0,286047000.1,N
1508488595.8,286047000.4,N
1508488615.7,286047000.6,N
1508488635.5,286047000.5,N
1508488655.3,286047000.1,N
1508488675.2,286047001.2,N
1508488695.0,286046998.4,N
1508488695.9,286046998.4,N
1508488715.8,286047001.0,N
1508488735.6,286046998.1,N
1508488755.4,286046999.0,N
1508488775.3,286046999.4,N
1508488795.1,286046999.0,N
1508488815.9,286046999.3,N
1508488835.7,286046999.6,N
1508488855.5,286046995.3,Y
1508488875.4,286046996.2,P
1508488895.2,286046996.0,N
1508488915.1,286046995.5,N
1508488916.0,286046995.5,N
1508488935.8,286046994.9,N
1508488955.6,286046995.8,N
1508488975.5,286046994.9,Y
1508488995.3,286046999.7,P
1508489015.2,286047002.8,N
1508489035.9,286046999.8,N
1508489055.7,286046999.7,N
1508489075.6,286046999.8,N
1508489095.4,286047000.9,N
1508489115.2,286047000.3,N
1508489135.1,286047000.4,N
1508489136.0,286047000.4,N
1508489155.8,286047001.1,N
1508489175.7,286047001.1,N
1508489195.5,286046998.5,N
1508489215.3,286046996.5,N
1508489235.2,286046999.0,N
1508489255.0,286046999.2,N
1508489255.9,286046999.2,N
1508489275.8,286047001.0,N
1508489295.6,286046998.6,N
1508489315.4,286046999.3,N
1508489335.3,286046998.5,N
1508489355.1,286047000.7,N
1508489375.8,286047001.2,N
1508489395.7,286046998.3,N
1508489415.5,286046999.3,N
1508489435.4,286046999.1,N
1508489455.2,286046999.4,N
1508489475.0,286046998.3,N
1508489475.9,286046998.3,N
1508489495.8,286047000.7,N
1508489515.6,286046999.1,N
1508489535.4,286046998.5,N
1508489555.3,286046996.9,N
1508489575.1,286046997.3,N
1508489595.9,286046997.0,N
1508489615.7,286046996.9,N
1508489635.5,286046996.9,N
1508489655.4,286046997.0,N
1508489675.2,286046996.6,N
1508489695.1,286046999.6,N
1508489696.0,286046999.6,N
1508489715.8,286046996.5,N
1508489735.6,286046996.9,N
1508489755.5,286046998.6,N
1508489775.3,286046999.6,N
1508489795.1,286046997.9,N
1508489815.9,286046995.8,Y
1508489835.7,286046998.0,P
1508489855.6,286046994.9,P
1508489875.4,286046995.4,N
1508489895.2,286046995.2,Y
1508489915.1,286046998.4,P
1508489916.0,286046998.4,N
1508489935.8,286046998.1,N
1508489955.7,286046998.6,N
1508489975.5,286047000.7,N
1508489995.3,286047000.9,N
